Regional Weather Roundup
Issued by NWS

Home | Current Version | Previous Version | Text Only | Print | Product List | Glossary On
Versions: 1 2 3 4 5 6 7 8 9 10 11 12 13 14 15 16 17 18 19 20 21 22 23 24 25 26 27 28 29 30 31 32 33 34 35 36 37 38 39 40 41 42 43 44 45 46 47 48 49 50
013
ASUS43 KMKX 201211
RWRWI

WISCONSIN REGIONAL WEATHER ROUNDUP
NATIONAL WEATHER SERVICE MILWAUKEE/SULLIVAN WI
700 AM CDT SUN AUG 20 2017

NOTE: "FAIR" INDICATES FEW OR NO CLOUDS BELOW 12,000 FEET WITH NO
SIGNIFICANT WEATHER AND/OR OBSTRUCTIONS TO VISIBILITY.

WIZ001-002-006>008-014>016-023>028-201300-
NORTHWEST WISCONSIN

CITY           SKY/WX    TMP DP  RH WIND       PRES   REMARKS
SUPERIOR ARPT  FOG       54  54 100 CALM      29.85S VSB 1/4
6HR MIN TEMP:  52; 6HR MAX TEMP:  60;

ASHLAND        PTCLDY    60  59  96 SW3       29.89S
6HR MIN TEMP:  54; 6HR MAX TEMP:  62;

HAYWARD        CLOUDY    62  60  93 S6        29.92S
6HR MIN TEMP:  53; 6HR MAX TEMP:  63;

SIREN          PTCLDY    63  61  94 S7        29.90R
6HR MIN TEMP:  62; 6HR MAX TEMP:  63;

CUMBERLAND     CLOUDY    59  57  94 SE6       29.92F
RICE LAKE      CLOUDY    60  59  96 SE3       29.94S
6HR MIN TEMP:  58; 6HR MAX TEMP:  60;

CHETEK         CLOUDY    60  60  99 SE5       29.94S
6HR MIN TEMP:  58; 6HR MAX TEMP:  60;

LADYSMITH      CLOUDY    61  59  93 S6        29.97R
6HR MIN TEMP:  59; 6HR MAX TEMP:  61;

EAU CLAIRE     CLOUDY    61  59  93 CALM      29.94R
6HR MIN TEMP:  58; 6HR MAX TEMP:  64;

MENOMONIE      CLOUDY    61  60  96 E3        29.93S
6HR MIN TEMP:  59; 6HR MAX TEMP:  63;

NEW RICHMOND   CLOUDY    63  62  97 SE6       29.90F
6HR MIN TEMP:  61; 6HR MAX TEMP:  63;

OSCEOLA        CLOUDY    64  64 100 SE6       29.92F
6HR MIN TEMP:  62; 6HR MAX TEMP:  64;

$$

WIZ003>005-009-010-017-018-201300-
NORTH CENTRAL WISCONSIN

CITY           SKY/WX    TMP DP  RH WIND       PRES   REMARKS
MANITOWISH WTR CLEAR     58  58 100 S5        29.96S
6HR MIN TEMP:  51; 6HR MAX TEMP:  58;

ARBOR VITAE    CLEAR     60  58  94 S3        29.98R
6HR MIN TEMP:  57; 6HR MAX TEMP:  60;

WOODRUFF       CLEAR     60  58  94 S3        29.98R
6HR MIN TEMP:  57; 6HR MAX TEMP:  60;

RHINELANDER    CLEAR     61  59  93 SW6       29.99S
6HR MIN TEMP:  52; 6HR MAX TEMP:  61;

EAGLE RIVER    PTCLDY    57  57 100 CALM      29.97S
6HR MIN TEMP:  51; 6HR MAX TEMP:  59;

LAND O LAKES   CLEAR     52  52 100 CALM      29.99S FOG
6HR MIN TEMP:  50; 6HR MAX TEMP:  54;

PHILLIPS       PTCLDY    59  59  99 S5        29.96S
6HR MIN TEMP:  55; 6HR MAX TEMP:  59;

TOMAHAWK         N/A     55  54  97 CALM      29.99R FOG
6HR MIN TEMP:  49; 6HR MAX TEMP:  55;

MEDFORD        CLOUDY    57  56  95 S6        29.98S
6HR MIN TEMP:  55; 6HR MAX TEMP:  59;

MERRILL        CLOUDY    52  52 100 CALM      30.00R
$$

WIZ029-030-035-036-043>047-201300-
CENTRAL WISCONSIN

CITY           SKY/WX    TMP DP  RH WIND       PRES   REMARKS
WAUSAU         CLOUDY    57  56  96 SE5       29.99R
6HR MIN TEMP:  55; 6HR MAX TEMP:  60;

MOSINEE        PTCLDY    55  55 100 CALM      30.01R
MARSHFIELD     CLOUDY    58  55  90 CALM      29.98R
6HR MIN TEMP:  57; 6HR MAX TEMP:  61;

STEVENS POINT  CLOUDY    54  54  99 CALM      30.01R
6HR MIN TEMP:  52; 6HR MAX TEMP:  56;

WAUPACA        CLOUDY    58  57  97 CALM      30.01R
6HR MIN TEMP:  56; 6HR MAX TEMP:  61;

WAUTOMA        PTCLDY    55  54  96 CALM      30.01S
6HR MIN TEMP:  54; 6HR MAX TEMP:  58;

WISC RAPIDS    CLOUDY    60  58  92 CALM      30.00R
6HR MIN TEMP:  56; 6HR MAX TEMP:  60;

CAMP DOUGLAS   CLOUDY    59  59 100 SE5       29.97F
6HR MIN TEMP:  55; 6HR MAX TEMP:  62;

$$

WIZ011>013-019>022-031-037>040-048>050-201300-
NORTHEAST WISCONSIN

CITY           SKY/WX    TMP DP  RH WIND       PRES   REMARKS
ANTIGO         CLOUDY    58  56  96 S3        30.01S
6HR MIN TEMP:  52; 6HR MAX TEMP:  58;

SHAWANO        CLEAR     60  58  92 CALM      29.99S
6HR MIN TEMP:  59; 6HR MAX TEMP:  62;

OCONTO         CLEAR     57  56  98 CALM      29.99S
6HR MIN TEMP:  53; 6HR MAX TEMP:  59;

STURGEON BAY   CLEAR     65  60  84 SW5       30.01R
6HR MIN TEMP:  61; 6HR MAX TEMP:  65;

GREEN BAY      CLEAR     60  60 100 CALM      30.00S FOG
6HR MIN TEMP:  56; 6HR MAX TEMP:  61;

MANITOWOC      CLEAR     63  59  87 CALM      30.01S
6HR MIN TEMP:  61; 6HR MAX TEMP:  66;

APPLETON       MOCLDY    63  61  94 CALM      29.99S
CLINTONVILLE   CLOUDY    55  55 100 CALM      30.00S FOG
OSHKOSH        PTCLDY    63  61  93 S7        30.00S
6HR MIN TEMP:  60; 6HR MAX TEMP:  66;

$$

WIZ032>034-041-042-053>061-201300-
SOUTHWEST WISCONSIN

CITY           SKY/WX    TMP DP  RH WIND       PRES   REMARKS
LA CROSSE      CLOUDY    65  61  87 SE5       29.95S
6HR MIN TEMP:  64; 6HR MAX TEMP:  66;

SPARTA         CLOUDY    52  52  98 CALM      29.96F
6HR MIN TEMP:  51; 6HR MAX TEMP:  54;

VIROQUA        CLOUDY    61  61  99 CALM      29.98S
6HR MIN TEMP:  61; 6HR MAX TEMP:  65;

BOSCOBEL       MOCLDY    61  59  93 NE3       29.97F FOG
6HR MIN TEMP:  57; 6HR MAX TEMP:  61;

PRAIRIE DU CHI CLOUDY    63  59  88 E3        29.96S
6HR MIN TEMP:  60; 6HR MAX TEMP:  63;

PLATTEVILLE    CLOUDY    63  62  96 E7        29.98F
6HR MIN TEMP:  62; 6HR MAX TEMP:  64;

$$

WIZ056-057-062-063-064-067-068-201300-
SOUTH CENTRAL WISCONSIN

CITY           SKY/WX    TMP DP  RH WIND       PRES   REMARKS
REEDSBURG      CLOUDY    58  58 100 CALM      29.98F
6HR MIN TEMP:  55; 6HR MAX TEMP:  60;

BARABOO/DELLS  CLOUDY    62  60  93 SE5       29.99F
6HR MIN TEMP:  59; 6HR MAX TEMP:  62;

LONE ROCK      CLOUDY    59  59 100 E3        29.98F
6HR MIN TEMP:  56; 6HR MAX TEMP:  60;

MINERAL POINT  CLOUDY    63  63 100 SE7       29.99F
MADISON        CLOUDY    61  59  93 CALM      30.00F
6HR MIN TEMP:  60; 6HR MAX TEMP:  64;

MIDDLETON      CLOUDY    61  61 100 CALM      30.01F
6HR MIN TEMP:  57; 6HR MAX TEMP:  61;

WATERTOWN      CLOUDY    59  59 100 CALM      30.02R
6HR MIN TEMP:  56; 6HR MAX TEMP:  60;

MONROE         CLOUDY    63  57  82 SE5       30.00F
JANESVILLE     MOCLDY    61  61 100 VRB3      30.01S
$$

WIZ051-052-058>065-066-070>072-201300-
SOUTHEAST WISCONSIN

CITY           SKY/WX    TMP DP  RH WIND       PRES   REMARKS
MILWAUKEE      MOCLDY    65  59  81 SW5       30.03R
6HR MIN TEMP:  63; 6HR MAX TEMP:  68;

WAUKESHA       CLEAR     59  57  94 CALM      30.04R
MILWAUKEE/TIMM PTCLDY    59  55  88 CALM      30.04R
RACINE         PTCLDY    65  59  81 SW5       30.05R
6HR MIN TEMP:  60; 6HR MAX TEMP:  66;

KENOSHA        PTCLDY    62  58  86 CALM      30.04R
6HR MIN TEMP:  56; 6HR MAX TEMP:  65;

FOND DU LAC    PTCLDY    62  58  86 S3        30.02R
6HR MIN TEMP:  60; 6HR MAX TEMP:  63; 6HR PCP: TRACE;

SHEBOYGAN      CLEAR     61  61 100 CALM      30.01S
6HR MIN TEMP:  58; 6HR MAX TEMP:  62;

WEST BEND      CLOUDY    57  57 100 CALM      30.03S
JUNEAU         CLOUDY    60  58  94 CALM      30.04R
6HR MIN TEMP:  58; 6HR MAX TEMP:  62;

$$

LSZ147-162-201300-
LAKE SUPERIOR

STATION/POSITION TIME  TEMP    WIND        PRES    WAVE
                       AIR SEA DIR/SP/G            HT/PER
                 (UTC) (F)     (DEG/KT/KT) (MB)    (FT/S)
W MID LAKE BUOY  1150   62 59  220/ 10/ 10 1011.3R   1/ 3
DEVILS ISLAND    1200   67     190/  9/ 12 1011.0F
SAXON HARBOR     1130   65     190/  5/  8 1011.9S
$$

LMZ867-665-643>646-201300-
LAKE MICHIGAN

STATION/POSITION TIME  TEMP    WIND        PRES    WAVE
                       AIR SEA DIR/SP/G            HT/PER
                 (UTC) (F)     (DEG/KT/KT) (MB)    (FT/S)
S GREEN BAY BUOY 1200   70 71  220/ 10/ 14 1015.3
N MID LAKE BUOY  1150   68 67  220/  8/  8 1015.8R   1/



USA.gov is the U.S. government's official web portal to all federal, state and local government web resources and services.